Terminal Aerodrome Forecast
Issued by NWS

Home | Current Version | Previous Version | Text Only | Print | Product List | Glossary On
Versions: 1 2 3 4 5 6 7 8 9 10 11 12 13 14 15 16 17 18 19 20 21 22 23 24 25 26 27 28 29 30 31 32 33 34 35 36 37 38 39 40 41 42 43 44 45 46 47 48 49 50
000
FTAK31 PANC 251011 AAA
TAFADU
TAF AMD
PADU 251011Z 2510/2606 VRB03KT P6SM OVC023
      TEMPO 2510/2512 SCT015 SCT025
     FM251200 28006KT P6SM VCSH OVC015
     FM252000 33008KT P6SM BKN030=

USA.gov is the U.S. government's official web portal to all federal, state and local government web resources and services.